Location: La Pernelle
(49.6188°N, 1.2999°W)
Time: 05:14:06
(UTC+00:00)

Cosmos 2333 Rocket - Visible Passes

Search period start: 26 October 2021 00:00
Search period end: 05 November 2021 00:00
Orbit: 839 x 863 km, 70.8° (Epoch: 25 October)

Date Brightness Start Highest point End Pass type
(mag) Time Alt. Az. Time Alt. Az. Time Alt. Az.
26 Oct 4.0 03:03:17 21° N 03:05:55 29° NE 03:10:53 10° ESE visible
26 Oct 2.2 04:45:22 12° NW 04:50:42 67° WSW 04:56:24 10° SSE visible
26 Oct 3.4 18:00:03 10° SSE 18:04:08 21° E 18:06:38 16° ENE visible
26 Oct 2.3 19:42:07 10° SW 19:47:47 75° WNW 19:48:44 61° N visible
26 Oct 4.7 21:28:58 10° W 21:30:49 16° WNW 21:30:49 16° WNW visible
27 Oct 3.9 02:52:40 27° NNE 02:53:41 29° NE 02:58:39 10° ESE visible
27 Oct 2.1 04:34:47 23° NW 04:38:28 67° WSW 04:44:10 10° SSE visible
27 Oct 3.4 17:47:49 10° SSE 17:51:54 21° E 17:55:48 11° NE visible
27 Oct 2.3 19:29:52 10° SW 19:35:33 75° WNW 19:37:52 37° NNE visible
27 Oct 4.5 21:16:44 10° W 21:19:57 19° NW 21:19:57 19° NW visible
28 Oct 4.0 02:42:17 28° ENE 02:42:17 28° ENE 02:46:25 10° ESE visible
28 Oct 2.1 04:24:24 43° NW 04:26:14 67° WSW 04:31:56 10° SSE visible
28 Oct 4.0 06:07:37 10° WNW 06:09:23 11° W 06:11:10 10° WSW visible
28 Oct 3.4 17:35:35 10° SSE 17:39:39 21° E 17:43:47 10° NE visible
28 Oct 2.3 19:17:38 10° SW 19:23:19 75° WNW 19:26:46 25° NNE visible
28 Oct 4.4 21:04:30 10° W 21:08:37 20° NW 21:08:50 20° NNW visible
29 Oct 4.4 02:32:03 20° E 02:32:03 20° E 02:34:12 10° ESE visible
29 Oct 2.1 04:14:11 66° SW 04:14:11 66° SW 04:19:42 10° SSE visible
29 Oct 3.9 05:56:19 11° W 05:57:10 11° W 05:58:55 10° WSW visible
29 Oct 3.4 17:23:20 10° SSE 17:27:26 21° E 17:31:33 10° NE visible
29 Oct 2.3 19:05:24 10° SW 19:11:04 75° WNW 19:15:28 18° NNE visible
29 Oct 4.4 20:52:16 10° W 20:56:23 20° NW 20:57:31 19° NNW visible
30 Oct 5.0 02:21:54 10° ESE 02:21:54 10° ESE 02:21:57 10° ESE visible
30 Oct 3.1 04:04:02 37° S 04:04:02 37° S 04:07:28 10° SSE visible
30 Oct 4.1 05:46:10 11° WSW 05:46:10 11° WSW 05:46:41 10° WSW visible
30 Oct 3.5 17:11:06 10° SSE 17:15:11 21° E 17:19:19 10° NE visible
30 Oct 2.3 18:53:09 10° SW 18:58:50 75° WNW 19:03:59 13° NNE visible
30 Oct 4.5 20:40:02 10° W 20:44:08 20° NW 20:46:01 17° NNW visible
31 Oct 4.1 03:53:53 18° SSE 03:53:53 18° SSE 03:55:14 10° SSE visible
31 Oct 2.4 18:40:55 10° SW 18:46:36 75° WNW 18:52:22 10° NNE visible
31 Oct 4.5 20:27:48 10° W 20:31:54 20° NW 20:34:24 15° N visible
01 Nov 2.4 18:28:41 10° SW 18:34:22 75° WNW 18:40:09 10° NNE visible
01 Nov 4.5 20:15:33 10° W 20:19:40 20° NW 20:22:41 14° N visible
02 Nov 2.4 18:16:27 10° SW 18:22:09 75° WNW 18:27:55 10° NNE visible
02 Nov 4.5 20:03:19 10° W 20:07:27 20° NW 20:10:54 12° N visible
03 Nov 2.4 18:04:13 10° SW 18:09:54 75° WNW 18:15:41 10° NNE visible
03 Nov 4.5 19:51:05 10° W 19:55:13 20° NW 19:59:04 11° N visible
04 Nov 2.4 17:51:58 10° SW 17:57:40 75° WNW 18:03:27 10° NNE visible
04 Nov 4.5 19:38:51 10° W 19:42:59 20° NW 19:47:08 10° N visible
